This demonstration page uses our WeatherBlox Daily Observations layout. Learn more.

Left ArrowRight Arrow

41.55636, -103.73856

Hourly Observations for June 24, 2019

Temp ( °F °C ) Dew Point ( °F °C ) Humidity (%) Winds ( mph kmh ) Pressure ( in mb ) Visibility ( mi km ) Precip ( " mm )
12:58 am 00:58 Clear 57 13.9 45 7.2 64 64 NW 6 9 29.95 1014 10 16 N/A
1:58 am 01:58 Mostly Clear 57 13.7 45 7.3 66 66 N N/A 29.93 1014 10 16 N/A
2:58 am 02:58 Mostly Clear 54 12.3 43 6 66 66 N N/A 29.94 1014 10 16 N/A
3:58 am 03:58 Mostly Cloudy 51 10.7 46 7.7 82 82 SW 14 22 29.97 1015 10 16 N/A
4:58 am 04:58 Partly Cloudy 51 10.3 44 6.4 77 77 WSW 10 17 29.94 1014 10 16 N/A
5:58 am 05:58 Partly Cloudy 50 9.8 43 6.1 78 78 SW 14 22 29.92 1013 10 16 N/A
6:58 am 06:58 Clear 50 10 41 5.2 72 72 WSW 14 22 29.90 1012 10 16 N/A
7:58 am 07:58 Clear 49 9.6 42 5.7 77 77 WSW 14 22 29.88 1012 10 16 N/A
8:58 am 08:58 Partly Cloudy 51 10.8 42 5.5 70 70 WSW 12 19 29.87 1011 10 16 N/A
9:58 am 09:58 Clear 47 8.2 42 5.6 84 84 WSW 13 20 29.88 1012 10 16 N/A
10:58 am 10:58 Mostly Cloudy 51 10.5 40 4.5 67 67 W 13 20 29.85 1011 10 16 N/A
11:58 am 11:58 Mostly Cloudy 51 10.8 41 5.1 68 68 W 13 20 29.85 1011 10 16 N/A
12:58 pm 12:58 Mostly Cloudy 55 12.6 42 5.7 63 63 W 10 17 29.85 1011 10 16 N/A
1:58 pm 13:58 Partly Cloudy 60 15.5 42 5.7 52 52 W 14 22 29.84 1010 10 16 N/A
2:58 pm 14:58 Sunny 62 16.9 44 6.6 51 51 W 10 17 29.83 1010 10 16 N/A
3:58 pm 15:58 Sunny 66 19 44 6.9 46 46 WNW 13 20 29.83 1010 10 16 N/A
4:58 pm 16:58 Sunny 70 21.1 42 5.6 37 37 WNW 17 28 29.80 1009 10 16 N/A
5:58 pm 17:58 Mostly Sunny 72 22.3 38 3.4 29 29 NW 21 33 29.80 1009 10 16 N/A
6:58 pm 18:58 Sunny 74 23.1 38 3.1 27 27 NW 24 39 29.78 1008 10 16 N/A
7:58 pm 19:58 Sunny 75 23.8 38 3.5 27 27 WNW 26 43 29.76 1008 10 16 N/A
8:58 pm 20:58 Mostly Sunny 73 23 40 4.4 30 30 WNW 22 35 29.78 1008 10 16 N/A
9:58 pm 21:58 Mostly Sunny 74 23.5 37 2.6 26 26 WNW 23 37 29.78 1009 10 16 N/A
10:58 pm 22:58 Sunny 76 24.3 35 1.8 23 23 NW 24 39 29.76 1008 10 16 N/A
11:58 pm 23:58 Sunny 72 22.4 38 3.3 29 29 WNW 15 24 29.78 1008 10 16 N/A

Powered by AerisWeather